Regional Weather Roundup
Issued by NWS Midland/Odessa, TX

Skip options and go directly to product.
Home | Oldest Version | Previous Version | Current Version | All | Text Only | Save Text | Print | Product List | Glossary Off

Skip product version selection by date and time.   

673
ASUS44 KMAF 230510
RWRMAF
MIDLAND AREA WEATHER ROUNDUP
NATIONAL WEATHER SERVICE MIDLAND TX
1100 PM CST SAT NOV 22 2014

...IN SOUTHWEST TEXAS AND SOUTHEAST NEW MEXICO...

CITY           SKY/WX    TMP DP  RH WIND       PRES   REMARKS
ALPINE         CLEAR     53  35  49 W15G23    29.98S
ANDREWS        FAIR      52  32  46 W13       29.79F
ARTESIA        NOT AVBL
BIG SPRING     PTCLDY    54  52  92 S8        29.79S
CARLSBAD       CLEAR     59  23  25 W20       29.78F
DRYDEN           N/A     55  39  54 W10       29.82R
FORT STOCKTON  CLEAR     52  37  56 SW13      29.85F
GUAD PASS      CLEAR     46  25  43 SW33      29.88F WCI  36
HOBBS          CLEAR     50  25  37 W13       29.80F
MARFA          CLEAR     45  32  61 W12       29.98S WCI  39
MIDLAND AIRPK  CLEAR     55  41  60 W8        29.78F
MIDLAND INTL   CLEAR     52  40  63 W10       29.78F
ODESSA         CLEAR     53  34  48 W9        29.79F
PECOS          CLEAR     57  36  44 SW13      29.82F
PRESIDIO       FAIR      56  38  50 NW9       29.93S
SEMINOLE       CLEAR     48  30  48 W9        29.79S
SNYDER         FOG       52  52  99 S13       29.76F VSB 1/2
WINK           CLEAR     51  33  50 W8        29.79F
$$
...OTHER STATIONS IN TEXAS...

CITY           SKY/WX    TMP DP  RH WIND       PRES   REMARKS
ABILENE        CLEAR     53  51  93 SW8       29.74F
AMARILLO       CLEAR     44  24  45 S12       29.63F WCI  38
AUSTIN         LGT RAIN  60  59  96 N20G32    29.69F
BROWNSVILLE    RAIN      76  71  85 SW9       29.79S
CORPUS CHRISTI CLOUDY    64  61  90 NW17      29.76R
DALLAS FTW     CLOUDY    54  54 100 SE13      29.70F
DEL RIO        CLEAR     53  51  93 CALM      29.79R
EL PASO        CLEAR     60  18  19 W25G38    29.89F
HOUSTON INT    LGT RAIN  65  63  93 SE12G25   29.72F FOG
LUBBOCK        CLEAR     45  32  60 SW8       29.71F
SAN ANGELO     CLEAR     53  51  93 CALM      29.76F
SAN ANTONIO    MOCLDY    62  54  74 NW15      29.72F
WACO           LGT RAIN  57  56  96 E5        29.75F
WICHITA FALLS  NOT AVBL
$$
...OTHER LOCATIONS IN NEW MEXICO...

CITY           SKY/WX    TMP DP  RH WIND       PRES   REMARKS
ALAMAGORDO     CLEAR     45  18  33 MISG      29.88S
ALBUQUERQUE    MOCLDY    44  14  29 S10       29.86F WCI  39
CANNON AFB     PTCLDY    55  16  21 W15       29.75S
CLOVIS         CLEAR     46  18  31 SW15      29.69S
HOLLOMAN AFB   PTCLDY    48  19  31 SE6       29.85F
ROSWELL        CLEAR     47  24  40 SW10      29.76F
RUIDOSO        CLEAR     48  12  23 W10G22    29.86S
SANTA FE       PTCLDY    32  14  47 VRB3      29.85F
TRUTH OR CONSE CLEAR     52  17  25 W5        29.87F
TUCUMCARI        N/A     57  15  19 W21       29.62F
$$

USA.gov is the U.S. government's official web portal to all federal, state and local government web resources and services.